[[{"header":{"parameterUnit":"m.s-1","parameterCategory":1,"la1":30.2991,"la2":30.254,"lo1":-89.0895,"lo2":-89.0444,"dy":0.0017,"dx":0.0017,"nx":28,"ny":28,"refTime":"2023-07-30T09:00:00:Z","depth":0,"parameterNumber":2,"parameterNumberName":"U-component_of_WINDS"},"data":[0,0,0,0,0,0,0,0,0,0,0,0,0,0,0,0,0,0,0,0,0,0,0,0,0,0,0,0,0,0,0,0,0,0,0,0,0,0,0,0,0,0,0,0,0,0,0,0,0,0,0,0,0,0,0,0,0,0,-0.2302,-0.23,0,-0.2124,-0.2121,-0.2119,-0.2044,-0.2044,-0.2044,-0.2045,-0.1857,-0.1852,-0.1847,0,0,0,0,0,0,0,0,0,0,0,0,0,-0.2575,-0.257,-0.2302,-0.23,-0.2298,-0.2124,-0.2121,-0.2119,-0.2044,-0.2044,-0.2045,-0.2045,-0.1859,-0.1853,-0.1846,0,0,0,0,0,0,0,0,0,0,0,0,0,-0.2432,-0.2569,-0.2302,-0.2239,-0.2232,-0.2124,-0.2121,-0.2118,-0.2044,-0.2044,-0.2045,-0.2045,-0.1861,-0.1853,-0.1845,-0.1786,0,0,-0.1821,-0.1817,0,0,0,0,0,0,0,0,-0.244,-0.2422,-0.2251,-0.2243,-0.2235,-0.2107,-0.2149,-0.2007,-0.2044,-0.2115,-0.2045,-0.2045,-0.1939,-0.1925,-0.189,-0.1777,-0.1769,-0.182,-0.1815,-0.1812,-0.181,0,0,0,0,0,0,0,-0.245,-0.243,-0.2231,-0.2248,-0.2239,-0.2219,-0.2199,-0.2121,-0.2026,-0.2109,-0.2103,-0.2083,-0.1935,-0.1898,-0.1885,-0.1766,-0.182,-0.1813,-0.1808,-0.1805,-0.1597,-0.1596,0,0,0,0,0,0,-0.2471,-0.2438,-0.2237,-0.2226,-0.2341,-0.2214,-0.2192,-0.2147,-0.2027,-0.2009,-0.2083,-0.208,-0.1911,-0.1895,-0.1878,-0.1802,-0.1812,-0.1805,-0.18,-0.1598,-0.1597,-0.1596,0,0,0,0,0,0,-0.2477,-0.2454,-0.2244,-0.233,-0.2302,-0.2208,-0.2159,-0.2143,-0.2106,-0.2007,-0.199,-0.2063,-0.1911,-0.189,-0.181,-0.1794,-0.1801,-0.1794,-0.1598,-0.1597,-0.1596,-0.1647,0,0,0,0,0,0,-0.2486,-0.2457,-0.2434,-0.2331,-0.2298,-0.218,-0.2158,-0.2139,-0.2093,-0.2088,-0.1984,-0.1967,-0.191,-0.1822,-0.1802,-0.1783,-0.1787,-0.1599,-0.1598,-0.1597,-0.1647,-0.1648,-0.165,0,0,0,0,0,-0.2496,-0.2454,-0.2433,-0.2409,-0.2267,-0.2179,-0.216,-0.2097,-0.2092,-0.2068,-0.2005,-0.197,-0.18,-0.1815,-0.1791,-0.177,-0.16,-0.1598,-0.1597,-0.1646,-0.1648,-0.165,0,0,0,0,0,0,-0.2555,-0.2439,-0.2414,-0.2338,-0.227,-0.2167,-0.2134,-0.2101,-0.203,-0.2028,-0.1951,-0.1928,-0.1856,-0.1804,-0.1824,-0.1707,-0.1697,-0.169,-0.1743,-0.1743,-0.1745,-0.1758,-0.1781,0,0,0,0,0,-0.256,-0.2499,-0.24,-0.2343,-0.231,-0.2228,-0.2187,-0.2145,-0.207,-0.2039,-0.197,-0.1898,-0.1827,-0.1783,-0.1712,-0.164,-0.1616,-0.1613,-0.1615,-0.1616,-0.1611,-0.157,-0.1568,-0.159,-0.159,-0.159,0,0,-0.2568,-0.2497,-0.2463,-0.2353,-0.2295,-0.2233,-0.2204,-0.2139,-0.2092,-0.2029,-0.195,-0.1898,-0.1811,-0.1735,-0.1698,-0.169,-0.16,-0.1614,-0.1616,-0.161,-0.1568,-0.1566,-0.1564,-0.1589,-0.1589,-0.1589,0,0,-0.2551,-0.2492,-0.2438,-0.2381,-0.2294,-0.224,-0.2228,-0.213,-0.2093,-0.2014,-0.1965,-0.1908,-0.1789,-0.173,-0.1684,-0.1648,-0.1614,-0.1627,-0.1634,-0.1595,-0.1593,-0.1591,-0.1578,-0.1575,-0.1623,-0.1623,-0.1623,0,-0.2572,-0.2478,-0.2414,-0.2352,-0.2306,-0.2248,-0.2193,-0.214,-0.2034,-0.2003,-0.1996,-0.1847,-0.1784,-0.1694,-0.1686,-0.1651,-0.1634,-0.1638,-0.1599,-0.1596,-0.1593,-0.158,-0.1576,-0.1625,-0.1625,-0.1625,-0.1625,0,-0.2508,-0.2444,-0.2411,-0.2312,-0.2262,-0.2203,-0.213,-0.2086,-0.2049,-0.1996,-0.1917,-0.184,-0.1755,-0.173,-0.1692,-0.1635,-0.1633,-0.1614,-0.1602,-0.1594,-0.1581,-0.1576,-0.1629,-0.1628,-0.1627,-0.1627,0,0,-0.2522,-0.2391,-0.238,-0.2335,-0.2236,-0.2185,-0.2124,-0.2042,-0.2007,-0.1936,-0.1883,-0.1785,-0.1767,-0.1716,-0.1671,-0.1636,-0.1614,-0.1621,-0.1617,-0.1622,-0.1547,-0.1562,-0.1557,-0.1591,-0.159,-0.1589,-0.1554,0,-0.2492,-0.2383,-0.2325,-0.224,-0.218,-0.2126,-0.2073,-0.2006,-0.1956,-0.1897,-0.184,-0.1772,-0.1754,-0.1723,-0.1686,-0.1624,-0.1597,-0.1626,-0.154,-0.1538,-0.1563,-0.155,-0.1565,-0.1536,-0.1548,-0.1547,-0.1547,0,-0.2442,-0.2375,-0.2285,-0.2194,-0.2167,-0.2121,-0.2042,-0.1987,-0.191,-0.1876,-0.182,-0.1776,-0.171,-0.1705,-0.1612,-0.1633,-0.1595,-0.1559,-0.1557,-0.1545,-0.1541,-0.1538,-0.1525,-0.1521,-0.1538,-0.1538,-0.1539,0,-0.2462,-0.2349,-0.2281,-0.2244,-0.2136,-0.2106,-0.2059,-0.1983,-0.1938,-0.1869,-0.1839,-0.1763,-0.1721,-0.1662,-0.1599,-0.1601,-0.1513,-0.1502,-0.1482,-0.1484,-0.1465,-0.1467,-0.1445,-0.1441,-0.1441,-0.1442,-0.1442,0,-0.2435,-0.2382,-0.2288,-0.2246,-0.2186,-0.2119,-0.206,-0.2009,-0.1943,-0.1889,-0.1837,-0.1788,-0.1708,-0.1649,-0.1598,-0.153,-0.1511,-0.1481,-0.1468,-0.1485,-0.1489,-0.1458,-0.1458,-0.144,-0.1441,-0.1441,-0.1441,0,-0.2446,-0.2381,-0.2304,-0.2209,-0.2184,-0.2144,-0.2063,-0.2019,-0.1968,-0.1901,-0.1881,-0.1799,-0.1727,-0.1658,-0.1561,-0.1527,-0.1459,-0.1442,-0.1485,-0.1478,-0.1462,-0.1464,-0.1419,-0.1409,-0.1413,-0.1413,-0.1413,0,-0.2433,-0.2391,-0.2293,-0.2255,-0.221,-0.2148,-0.2103,-0.2036,-0.1991,-0.1902,-0.187,-0.1794,-0.173,-0.1617,-0.1548,-0.1474,-0.1454,-0.1444,-0.1443,-0.1462,-0.1454,-0.1457,-0.1453,-0.1445,-0.1445,-0.1446,-0.1446,0,-0.2416,-0.2386,-0.2324,-0.2251,-0.2199,-0.2137,-0.2074,-0.2045,-0.1966,-0.1918,-0.1845,-0.1796,-0.1698,-0.1623,-0.1542,-0.1493,-0.1456,-0.1447,-0.1438,-0.1455,-0.1482,-0.1467,-0.1489,-0.1448,-0.1448,-0.1448,-0.1447,-0.1447,-0.2414,-0.2375,-0.2301,-0.2233,-0.2179,-0.2122,-0.2077,-0.2021,-0.1959,-0.1875,-0.184,-0.1766,-0.1691,-0.1578,-0.1529,-0.147,-0.1461,-0.1449,-0.1445,-0.1443,-0.1447,-0.1493,-0.1455,-0.1455,-0.1454,-0.1454,-0.1454,0,-0.2394,-0.2345,-0.2283,-0.2198,-0.2145,-0.2117,-0.2046,-0.2004,-0.194,-0.1874,-0.1813,-0.1729,-0.1657,-0.1584,-0.1508,-0.1474,-0.1456,-0.1457,-0.1458,-0.1447,-0.1459,-0.1474,-0.1473,-0.1473,-0.1473,-0.1473,-0.1473,-0.1473,-0.2378,-0.2311,-0.2273,-0.2179,-0.2129,-0.2057,-0.2019,-0.1966,-0.1914,-0.1823,-0.1764,-0.1717,-0.1648,-0.1567,-0.15,-0.148,-0.1454,-0.146,-0.1435,-0.1447,-0.1446,-0.1445,-0.1459,-0.1455,-0.1455,-0.1428,-0.1428,-0.1428]},{"header":{"parameterUnit":"m.s-1","parameterCategory":1,"la1":30.2991,"la2":30.254,"lo1":-89.0895,"lo2":-89.0444,"dy":0.0017,"dx":0.0017,"nx":28,"ny":28,"refTime":"2023-07-30T09:00:00:Z","depth":0,"parameterNumber":3,"parameterNumberName":"V-component_of_WINDS"},"data":[0,0,0,0,0,0,0,0,0,0,0,0,0,0,0,0,0,0,0,0,0,0,0,0,0,0,0,0,0,0,0,0,0,0,0,0,0,0,0,0,0,0,0,0,0,0,0,0,0,0,0,0,0,0,0,0,0,0,2.251,2.251,0,2.2507,2.2507,2.2507,2.2468,2.2467,2.2467,2.2466,2.2459,2.2459,2.246,0,0,0,0,0,0,0,0,0,0,0,0,0,2.2475,2.2476,2.251,2.251,2.251,2.2507,2.2507,2.2507,2.2469,2.2467,2.2466,2.2465,2.2458,2.2459,2.246,0,0,0,0,0,0,0,0,0,0,0,0,0,2.2483,2.2476,2.251,2.2491,2.2489,2.2507,2.2507,2.2507,2.2469,2.2467,2.2466,2.2465,2.2458,2.2459,2.246,2.2496,0,0,2.2463,2.2464,0,0,0,0,0,0,0,0,2.2483,2.2484,2.2493,2.2492,2.249,2.2487,2.2492,2.2503,2.2469,2.2476,2.2466,2.2464,2.2469,2.2469,2.2471,2.2496,2.2495,2.2464,2.2464,2.2465,2.2465,0,0,0,0,0,0,0,2.2482,2.2484,2.2509,2.2494,2.2491,2.2479,2.2479,2.2494,2.2481,2.2476,2.2473,2.2473,2.2468,2.2471,2.2471,2.2495,2.2464,2.2464,2.2465,2.2466,2.2541,2.2543,0,0,0,0,0,0,2.2485,2.2484,2.2509,2.2509,2.2483,2.2481,2.2481,2.2489,2.248,2.2478,2.2474,2.2471,2.2469,2.247,2.2471,2.2507,2.2465,2.2466,2.2466,2.254,2.2542,2.2543,0,0,0,0,0,0,2.2484,2.2488,2.2509,2.2496,2.2497,2.2484,2.2493,2.249,2.2493,2.248,2.2476,2.248,2.2468,2.2469,2.2489,2.2506,2.2466,2.2467,2.2538,2.254,2.2542,2.2583,0,0,0,0,0,0,2.2484,2.2488,2.2503,2.2496,2.2498,2.2529,2.2494,2.2491,2.2495,2.2491,2.2484,2.2482,2.2467,2.2487,2.249,2.2507,2.2468,2.2537,2.2539,2.2542,2.258,2.2587,2.2592,0,0,0,0,0,2.2483,2.2515,2.2504,2.2507,2.2518,2.2531,2.2532,2.2515,2.2497,2.251,2.2501,2.2482,2.2505,2.249,2.2492,2.251,2.2535,2.2539,2.2541,2.2578,2.2585,2.2592,0,0,0,0,0,0,2.2525,2.2514,2.2502,2.2534,2.2533,2.2524,2.2541,2.2525,2.2529,2.2525,2.2503,2.2502,2.2523,2.2519,2.2503,2.2541,2.2516,2.252,2.2543,2.255,2.2556,2.2555,2.2469,0,0,0,0,0,2.2538,2.2551,2.2541,2.257,2.257,2.2556,2.2561,2.2548,2.2546,2.2546,2.2538,2.2536,2.2541,2.2546,2.2551,2.258,2.2575,2.2593,2.2599,2.2604,2.2606,2.2616,2.2622,2.2553,2.2553,2.2553,0,0,2.2565,2.2561,2.257,2.2578,2.2576,2.2587,2.2556,2.2571,2.2577,2.2548,2.2564,2.2559,2.2554,2.2577,2.2586,2.2574,2.2624,2.2608,2.2612,2.2611,2.2619,2.2626,2.2632,2.2555,2.2555,2.2555,0,0,2.2618,2.2619,2.264,2.2639,2.2636,2.2626,2.2631,2.2623,2.2618,2.2635,2.2611,2.2618,2.2631,2.2627,2.2626,2.2674,2.2654,2.2676,2.2706,2.2715,2.272,2.2725,2.2738,2.2743,2.2679,2.2679,2.268,0,2.2652,2.267,2.2653,2.2668,2.2669,2.2643,2.2662,2.2661,2.266,2.2661,2.2647,2.2658,2.2654,2.2672,2.2684,2.2686,2.2688,2.2676,2.2721,2.2726,2.273,2.2741,2.2747,2.2682,2.2682,2.2681,2.2681,0,2.2707,2.272,2.2737,2.2736,2.274,2.2757,2.274,2.2746,2.2732,2.2722,2.2737,2.273,2.2731,2.2735,2.2723,2.2751,2.2742,2.2726,2.27,2.2739,2.2749,2.2754,2.2685,2.2684,2.2684,2.2683,0,0,2.2788,2.2776,2.2782,2.2779,2.2772,2.278,2.2794,2.2795,2.2798,2.2798,2.2806,2.2815,2.2798,2.2797,2.2784,2.2792,2.2824,2.2773,2.2773,2.278,2.285,2.286,2.2866,2.2812,2.2813,2.2814,2.2849,0,2.2836,2.286,2.2844,2.2869,2.2877,2.2851,2.2862,2.2858,2.2848,2.2852,2.2841,2.2846,2.2825,2.2824,2.2832,2.2819,2.2838,2.2817,2.2816,2.2816,2.2815,2.2872,2.2884,2.2917,2.2853,2.2854,2.2854,0,2.2896,2.2896,2.2923,2.291,2.2913,2.2924,2.2921,2.2926,2.2919,2.2911,2.2909,2.2891,2.29,2.2876,2.2886,2.2872,2.2871,2.2864,2.2865,2.2862,2.2836,2.2867,2.2928,2.2932,2.2861,2.2861,2.286,0,2.2945,2.2954,2.2969,2.2968,2.2955,2.2962,2.2957,2.2948,2.2949,2.2946,2.2945,2.2944,2.2942,2.2939,2.292,2.2906,2.2931,2.2907,2.2921,2.2921,2.2926,2.2925,2.2984,2.293,2.293,2.293,2.293,0,2.2998,2.3014,2.299,2.2999,2.3015,2.2995,2.301,2.3002,2.2994,2.2998,2.2976,2.2981,2.2957,2.2958,2.2943,2.295,2.2951,2.2942,2.2937,2.2942,2.2943,2.2939,2.2935,2.2932,2.2931,2.2931,2.2931,0,2.3056,2.3041,2.3055,2.3041,2.3038,2.305,2.3036,2.3042,2.3031,2.3036,2.3036,2.3017,2.3017,2.2998,2.2994,2.2984,2.2996,2.2989,2.2999,2.2995,2.3009,2.3006,2.3065,2.307,2.3016,2.3017,2.3017,0,2.3089,2.31,2.3087,2.3089,2.3084,2.3088,2.3087,2.3068,2.3068,2.3058,2.3064,2.3062,2.3059,2.3059,2.3043,2.3039,2.3029,2.3049,2.3028,2.3031,2.3024,2.3023,2.3022,2.3053,2.3054,2.3054,2.3055,0,2.3147,2.3139,2.314,2.3137,2.3138,2.3135,2.313,2.3132,2.311,2.3111,2.311,2.3108,2.3102,2.3099,2.3091,2.3083,2.3064,2.3062,2.3064,2.3068,2.3072,2.3066,2.3007,2.306,2.306,2.3059,2.3059,2.3059,2.3191,2.3197,2.3188,2.3189,2.3183,2.3179,2.3182,2.3171,2.317,2.3165,2.3153,2.3153,2.3141,2.3129,2.3122,2.312,2.3109,2.3113,2.3114,2.3114,2.3116,2.3075,2.3119,2.3119,2.3118,2.3118,2.3118,0,2.3244,2.3236,2.3237,2.3231,2.323,2.3215,2.3208,2.3207,2.3208,2.32,2.3197,2.3194,2.319,2.3173,2.3167,2.3168,2.3159,2.3166,2.3164,2.3162,2.3128,2.3125,2.3174,2.3174,2.3174,2.3174,2.3174,2.3174,2.3272,2.3281,2.3271,2.3276,2.3268,2.3268,2.3265,2.3259,2.3252,2.325,2.3247,2.3236,2.3223,2.3215,2.3209,2.3204,2.3201,2.3211,2.3203,2.317,2.3165,2.316,2.3157,2.3211,2.3212,2.3237,2.3237,2.3237]}]]